Year,Month,Day,Hour,Minute,Value (Times are PST for temperature in C)
2008,09,23,00,00,6.20
2008,09,23,00,01,6.20
2008,09,23,00,02,6.20
2008,09,23,00,03,6.10
2008,09,23,00,04,6.10
2008,09,23,00,05,6.10
2008,09,23,00,06,6.10
2008,09,23,00,07,6.10
2008,09,23,00,08,6.00
2008,09,23,00,09,6.00
2008,09,23,00,10,6.00
2008,09,23,00,11,6.00
2008,09,23,00,12,6.00
2008,09,23,00,13,6.00
2008,09,23,00,14,5.90
2008,09,23,00,15,5.90
2008,09,23,00,16,5.90
2008,09,23,00,17,5.90
2008,09,23,00,18,5.90
2008,09,23,00,19,5.90
2008,09,23,00,20,5.90
2008,09,23,00,21,5.90
2008,09,23,00,22,5.90
2008,09,23,00,23,5.90
2008,09,23,00,24,5.90
2008,09,23,00,25,5.90
2008,09,23,00,26,5.80
2008,09,23,00,27,5.80
2008,09,23,00,28,5.80
2008,09,23,00,29,5.90
2008,09,23,00,30,5.80
2008,09,23,00,31,5.80
2008,09,23,00,32,5.80
2008,09,23,00,33,5.80
2008,09,23,00,34,5.80
2008,09,23,00,35,5.80
2008,09,23,00,36,5.80
2008,09,23,00,37,5.70
2008,09,23,00,38,5.70
2008,09,23,00,39,5.70
2008,09,23,00,40,5.70
2008,09,23,00,41,5.70
2008,09,23,00,42,5.70
2008,09,23,00,43,5.70
2008,09,23,00,44,5.70
2008,09,23,00,45,5.70
2008,09,23,00,46,5.70
2008,09,23,00,47,5.70
2008,09,23,00,48,5.70
2008,09,23,00,49,5.70
2008,09,23,00,50,5.60
2008,09,23,00,51,5.60
2008,09,23,00,52,5.60
2008,09,23,00,53,5.60
2008,09,23,00,54,5.60
2008,09,23,00,55,5.60
2008,09,23,00,56,5.60
2008,09,23,00,57,5.60
2008,09,23,00,58,5.60
2008,09,23,00,59,5.60
2008,09,23,01,00,5.60
2008,09,23,01,01,5.60
2008,09,23,01,02,5.60
2008,09,23,01,03,5.60
2008,09,23,01,04,5.60
2008,09,23,01,05,5.60
2008,09,23,01,06,5.60
2008,09,23,01,07,5.60
2008,09,23,01,08,5.60
2008,09,23,01,09,5.60
2008,09,23,01,10,5.60
2008,09,23,01,11,5.60
2008,09,23,01,12,5.60
2008,09,23,01,13,5.60
2008,09,23,01,14,5.50
2008,09,23,01,15,5.50
2008,09,23,01,16,5.50
2008,09,23,01,17,5.50
2008,09,23,01,18,5.50
2008,09,23,01,19,5.50
2008,09,23,01,20,5.50
2008,09,23,01,21,5.50
2008,09,23,01,22,5.50
2008,09,23,01,23,5.50
2008,09,23,01,24,5.50
2008,09,23,01,25,5.50
2008,09,23,01,26,5.50
2008,09,23,01,27,5.50
2008,09,23,01,28,5.50
2008,09,23,01,29,5.50
2008,09,23,01,30,5.50
2008,09,23,01,31,5.50
2008,09,23,01,32,5.50
2008,09,23,01,33,5.50
2008,09,23,01,34,5.50
2008,09,23,01,35,5.50
2008,09,23,01,36,5.50
2008,09,23,01,37,5.50
2008,09,23,01,38,5.50
2008,09,23,01,39,5.50
2008,09,23,01,40,5.50
2008,09,23,01,41,5.50
2008,09,23,01,42,5.50
2008,09,23,01,43,5.50
2008,09,23,01,44,5.50
2008,09,23,01,45,5.50
2008,09,23,01,46,5.50
2008,09,23,01,47,5.50
2008,09,23,01,48,5.50
2008,09,23,01,49,5.50
2008,09,23,01,50,5.50
2008,09,23,01,51,5.50
2008,09,23,01,52,5.40
2008,09,23,01,53,5.40
2008,09,23,01,54,5.40
2008,09,23,01,55,5.40
2008,09,23,01,56,5.30
2008,09,23,01,57,5.30
2008,09,23,01,58,5.30
2008,09,23,01,59,5.30
2008,09,23,02,00,5.30
2008,09,23,02,01,5.30
2008,09,23,02,02,5.30
2008,09,23,02,03,5.30
2008,09,23,02,04,5.30
2008,09,23,02,05,5.30
2008,09,23,02,06,5.30
2008,09,23,02,07,5.30
2008,09,23,02,08,5.30
2008,09,23,02,09,5.30
2008,09,23,02,10,5.30
2008,09,23,02,11,5.20
2008,09,23,02,12,5.20
2008,09,23,02,13,5.20
2008,09,23,02,14,5.20
2008,09,23,02,15,5.20
2008,09,23,02,16,5.20
2008,09,23,02,17,5.20
2008,09,23,02,18,5.20
2008,09,23,02,19,5.20
2008,09,23,02,20,5.20
2008,09,23,02,21,5.20
2008,09,23,02,22,5.10
2008,09,23,02,23,5.10
2008,09,23,02,24,5.10
2008,09,23,02,25,5.10
2008,09,23,02,26,5.10
2008,09,23,02,27,5.10
2008,09,23,02,28,5.10
2008,09,23,02,29,5.10
2008,09,23,02,30,5.10
2008,09,23,02,31,5.10
2008,09,23,02,32,5.10
2008,09,23,02,33,5.10
2008,09,23,02,34,5.10
2008,09,23,02,35,5.10
2008,09,23,02,36,5.00
2008,09,23,02,37,4.90
2008,09,23,02,38,4.90
2008,09,23,02,39,4.90
2008,09,23,02,40,4.90
2008,09,23,02,41,4.90
2008,09,23,02,42,4.90
2008,09,23,02,43,4.90
2008,09,23,02,44,4.90
2008,09,23,02,45,4.90
2008,09,23,02,46,4.90
2008,09,23,02,47,4.90
2008,09,23,02,48,4.90
2008,09,23,02,49,4.90
2008,09,23,02,50,4.90
2008,09,23,02,51,4.90
2008,09,23,02,52,4.90
2008,09,23,02,53,5.10
2008,09,23,02,54,5.10
2008,09,23,02,55,5.10
2008,09,23,02,56,5.10
2008,09,23,02,57,5.10
2008,09,23,02,58,5.10
2008,09,23,02,59,5.10
2008,09,23,03,00,5.10
2008,09,23,03,01,5.10
2008,09,23,03,02,5.10
2008,09,23,03,03,5.00
2008,09,23,03,04,5.00
2008,09,23,03,05,4.90
2008,09,23,03,06,4.90
2008,09,23,03,07,4.90
2008,09,23,03,08,4.90
2008,09,23,03,09,4.90
2008,09,23,03,10,4.90
2008,09,23,03,11,4.80
2008,09,23,03,12,4.80
2008,09,23,03,13,4.80
2008,09,23,03,14,4.80
2008,09,23,03,15,4.70
2008,09,23,03,16,4.70
2008,09,23,03,17,4.70
2008,09,23,03,18,4.70
2008,09,23,03,19,4.60
2008,09,23,03,20,4.60
2008,09,23,03,21,4.60
2008,09,23,03,22,4.60
2008,09,23,03,23,4.60
2008,09,23,03,24,4.60
2008,09,23,03,25,4.60
2008,09,23,03,26,4.60
2008,09,23,03,27,4.60
2008,09,23,03,28,4.60
2008,09,23,03,29,4.60
2008,09,23,03,30,4.60
2008,09,23,03,31,4.60
2008,09,23,03,32,4.60
2008,09,23,03,33,4.60
2008,09,23,03,34,4.60
2008,09,23,03,35,4.60
2008,09,23,03,36,4.60
2008,09,23,03,37,4.60
2008,09,23,03,38,4.60
2008,09,23,03,39,4.50
2008,09,23,03,40,4.50
2008,09,23,03,41,4.50
2008,09,23,03,42,4.50
2008,09,23,03,43,4.50
2008,09,23,03,44,4.50
2008,09,23,03,45,4.50
2008,09,23,03,46,4.50
2008,09,23,03,47,4.50
2008,09,23,03,48,4.50
2008,09,23,03,49,4.50
2008,09,23,03,50,4.50
2008,09,23,03,51,4.50
2008,09,23,03,52,4.50
2008,09,23,03,53,4.50
2008,09,23,03,54,4.50
2008,09,23,03,55,4.50
2008,09,23,03,56,4.50
2008,09,23,03,57,4.50
2008,09,23,03,58,4.50
2008,09,23,03,59,4.40
2008,09,23,04,00,4.40
2008,09,23,04,01,4.40
2008,09,23,04,02,4.40
2008,09,23,04,03,4.40
2008,09,23,04,04,4.40
2008,09,23,04,05,4.40
2008,09,23,04,06,4.40
2008,09,23,04,07,4.40
2008,09,23,04,08,4.40
2008,09,23,04,09,4.40
2008,09,23,04,10,4.40
2008,09,23,04,11,4.40
2008,09,23,04,12,4.50
2008,09,23,04,13,4.50
2008,09,23,04,14,4.50
2008,09,23,04,15,4.50
2008,09,23,04,16,4.50
2008,09,23,04,17,4.40
2008,09,23,04,18,4.40
2008,09,23,04,19,4.40
2008,09,23,04,20,4.40
2008,09,23,04,21,4.40
2008,09,23,04,22,4.40
2008,09,23,04,23,4.40
2008,09,23,04,24,4.40
2008,09,23,04,25,4.30
2008,09,23,04,26,4.30
2008,09,23,04,27,4.30
2008,09,23,04,28,4.30
2008,09,23,04,29,4.30
2008,09,23,04,30,4.30
2008,09,23,04,31,4.30
2008,09,23,04,32,4.30
2008,09,23,04,33,4.30
2008,09,23,04,34,4.30
2008,09,23,04,35,4.30
2008,09,23,04,36,4.30
2008,09,23,04,37,4.30
2008,09,23,04,38,4.30
2008,09,23,04,39,4.30
2008,09,23,04,40,4.20
2008,09,23,04,41,4.20
2008,09,23,04,42,4.20
2008,09,23,04,43,4.20
2008,09,23,04,44,4.30
2008,09,23,04,45,4.30
2008,09,23,04,46,4.30
2008,09,23,04,47,4.30
2008,09,23,04,48,4.30
2008,09,23,04,49,4.30
2008,09,23,04,50,4.30
2008,09,23,04,51,4.30
2008,09,23,04,52,4.30
2008,09,23,04,53,4.30
2008,09,23,04,54,4.30
2008,09,23,04,55,4.30
2008,09,23,04,56,4.30
2008,09,23,04,57,4.30
2008,09,23,04,58,4.30
2008,09,23,04,59,4.30
2008,09,23,05,00,4.20
2008,09,23,05,01,4.20
2008,09,23,05,02,4.20
2008,09,23,05,03,4.20
2008,09,23,05,04,4.20
2008,09,23,05,05,4.20
2008,09,23,05,06,4.20
2008,09,23,05,07,4.20
2008,09,23,05,08,4.20
2008,09,23,05,09,4.20
2008,09,23,05,10,4.20
2008,09,23,05,11,4.20
2008,09,23,05,12,4.20
2008,09,23,05,13,4.20
2008,09,23,05,14,4.20
2008,09,23,05,15,4.20
2008,09,23,05,16,4.20
2008,09,23,05,17,4.20
2008,09,23,05,18,4.20
2008,09,23,05,19,4.20
2008,09,23,05,20,4.20
2008,09,23,05,21,4.20
2008,09,23,05,22,4.20
2008,09,23,05,23,4.20
2008,09,23,05,24,4.20
2008,09,23,05,25,4.20
2008,09,23,05,26,4.20
2008,09,23,05,27,4.20
2008,09,23,05,28,4.20
2008,09,23,05,29,4.20
2008,09,23,05,30,4.20
2008,09,23,05,31,4.20
2008,09,23,05,32,4.20
2008,09,23,05,33,4.20
2008,09,23,05,34,4.20
2008,09,23,05,35,4.20
2008,09,23,05,36,4.20
2008,09,23,05,37,4.20
2008,09,23,05,38,4.20
2008,09,23,05,39,4.20
2008,09,23,05,40,4.20
2008,09,23,05,41,4.20
2008,09,23,05,42,4.20
2008,09,23,05,43,4.20
2008,09,23,05,44,4.20
2008,09,23,05,45,4.20
2008,09,23,05,46,4.20
2008,09,23,05,47,4.20
2008,09,23,05,48,4.20
2008,09,23,05,49,4.20
2008,09,23,05,50,4.20
2008,09,23,05,51,4.20
2008,09,23,05,52,4.20
2008,09,23,05,53,4.20
2008,09,23,05,54,4.20
2008,09,23,05,55,4.20
2008,09,23,05,56,4.20
2008,09,23,05,57,4.20
2008,09,23,05,58,4.10
2008,09,23,05,59,4.10
2008,09,23,06,00,4.10
2008,09,23,06,01,4.10
2008,09,23,06,02,4.10
2008,09,23,06,03,4.10
2008,09,23,06,04,4.10
2008,09,23,06,05,4.10
2008,09,23,06,06,4.10
2008,09,23,06,07,4.10
2008,09,23,06,08,4.20
2008,09,23,06,09,4.20
2008,09,23,06,10,4.20
2008,09,23,06,11,4.20
2008,09,23,06,12,4.10
2008,09,23,06,13,4.10
2008,09,23,06,14,4.10
2008,09,23,06,15,4.10
2008,09,23,06,16,4.10
2008,09,23,06,17,4.10
2008,09,23,06,18,4.10
2008,09,23,06,19,4.00
2008,09,23,06,20,4.00
2008,09,23,06,21,4.00
2008,09,23,06,22,4.00
2008,09,23,06,23,4.00
2008,09,23,06,24,4.00
2008,09,23,06,25,4.00
2008,09,23,06,26,4.00
2008,09,23,06,27,4.10
2008,09,23,06,28,4.10
2008,09,23,06,29,4.10
2008,09,23,06,30,4.10
2008,09,23,06,31,4.10
2008,09,23,06,32,4.20
2008,09,23,06,33,4.20
2008,09,23,06,34,4.20
2008,09,23,06,35,4.20
2008,09,23,06,36,4.20
2008,09,23,06,37,4.20
2008,09,23,06,38,4.20
2008,09,23,06,39,4.20
2008,09,23,06,40,4.20
2008,09,23,06,41,4.20
2008,09,23,06,42,4.20
2008,09,23,06,43,4.20
2008,09,23,06,44,4.20
2008,09,23,06,45,4.10
2008,09,23,06,46,4.10
2008,09,23,06,47,4.10
2008,09,23,06,48,4.10
2008,09,23,06,49,4.10
2008,09,23,06,50,4.10
2008,09,23,06,51,4.10
2008,09,23,06,52,4.10
2008,09,23,06,53,4.10
2008,09,23,06,54,4.20
2008,09,23,06,55,4.20
2008,09,23,06,56,4.10
2008,09,23,06,57,4.20
2008,09,23,06,58,4.20
2008,09,23,06,59,4.20
2008,09,23,07,00,4.20
2008,09,23,07,01,4.20
2008,09,23,07,02,4.20
2008,09,23,07,03,4.20
2008,09,23,07,04,4.20
2008,09,23,07,05,4.20
2008,09,23,07,06,4.10
2008,09,23,07,07,4.10
2008,09,23,07,08,4.10
2008,09,23,07,09,4.10
2008,09,23,07,10,4.10
2008,09,23,07,11,4.10
2008,09,23,07,12,4.10
2008,09,23,07,13,4.00
2008,09,23,07,14,4.00
2008,09,23,07,15,4.00
2008,09,23,07,16,4.00
2008,09,23,07,17,4.00
2008,09,23,07,18,4.00
2008,09,23,07,19,4.00
2008,09,23,07,20,4.00
2008,09,23,07,21,4.00
2008,09,23,07,22,4.00
2008,09,23,07,23,4.00
2008,09,23,07,24,4.00
2008,09,23,07,25,4.00
2008,09,23,07,26,4.00
2008,09,23,07,27,4.00
2008,09,23,07,28,4.10
2008,09,23,07,29,4.10
2008,09,23,07,30,4.10
2008,09,23,07,31,4.10
2008,09,23,07,32,4.10
2008,09,23,07,33,4.20
2008,09,23,07,34,4.20
2008,09,23,07,35,4.20
2008,09,23,07,36,4.20
2008,09,23,07,37,4.30
2008,09,23,07,38,4.30
2008,09,23,07,39,4.40
2008,09,23,07,40,4.40
2008,09,23,07,41,4.50
2008,09,23,07,42,4.50
2008,09,23,07,43,4.50
2008,09,23,07,44,4.60
2008,09,23,07,45,4.60
2008,09,23,07,46,4.60
2008,09,23,07,47,4.60
2008,09,23,07,48,4.70
2008,09,23,07,49,4.70
2008,09,23,07,50,4.70
2008,09,23,07,51,4.80
2008,09,23,07,52,4.80
2008,09,23,07,53,4.80
2008,09,23,07,54,4.80
2008,09,23,07,55,4.80
2008,09,23,07,56,4.80
2008,09,23,07,57,4.80
2008,09,23,07,58,4.80
2008,09,23,07,59,4.80
2008,09,23,08,00,4.80
2008,09,23,08,01,4.80
2008,09,23,08,02,4.80
2008,09,23,08,03,4.80
2008,09,23,08,04,4.80
2008,09,23,08,05,4.80
2008,09,23,08,06,4.80
2008,09,23,08,07,4.80
2008,09,23,08,08,4.80
2008,09,23,08,09,4.80
2008,09,23,08,10,4.90
2008,09,23,08,11,4.90
2008,09,23,08,12,4.90
2008,09,23,08,13,4.90
2008,09,23,08,14,4.90
2008,09,23,08,15,4.90
2008,09,23,08,16,4.90
2008,09,23,08,17,4.90
2008,09,23,08,18,4.90
2008,09,23,08,19,4.90
2008,09,23,08,20,4.90
2008,09,23,08,21,5.10
2008,09,23,08,22,5.10
2008,09,23,08,23,5.10
2008,09,23,08,24,5.10
2008,09,23,08,25,5.20
2008,09,23,08,26,5.20
2008,09,23,08,27,5.30
2008,09,23,08,28,5.30
2008,09,23,08,29,5.30
2008,09,23,08,30,5.40
2008,09,23,08,31,5.50
2008,09,23,08,32,5.60
2008,09,23,08,33,5.60
2008,09,23,08,34,5.70
2008,09,23,08,35,5.70
2008,09,23,08,36,5.70
2008,09,23,08,37,5.80
2008,09,23,08,38,5.90
2008,09,23,08,39,5.90
2008,09,23,08,40,6.00
2008,09,23,08,41,6.00
2008,09,23,08,42,6.10
2008,09,23,08,43,6.20
2008,09,23,08,44,6.20
2008,09,23,08,45,6.20
2008,09,23,08,46,6.30
2008,09,23,08,47,6.40
2008,09,23,08,48,6.40
2008,09,23,08,49,6.50
2008,09,23,08,50,6.60
2008,09,23,08,51,6.60
2008,09,23,08,52,6.70
2008,09,23,08,53,6.80
2008,09,23,08,54,6.80
2008,09,23,08,55,6.90
2008,09,23,08,56,7.00
2008,09,23,08,57,7.00
2008,09,23,08,58,7.10
2008,09,23,08,59,7.20
2008,09,23,09,00,7.30
2008,09,23,09,01,7.30
2008,09,23,09,02,7.40
2008,09,23,09,03,7.50
2008,09,23,09,04,7.60
2008,09,23,09,05,7.70
2008,09,23,09,06,7.70
2008,09,23,09,07,7.80
2008,09,23,09,08,7.80
2008,09,23,09,09,7.90
2008,09,23,09,10,8.00
2008,09,23,09,11,8.10
2008,09,23,09,12,8.20
2008,09,23,09,13,8.30
2008,09,23,09,14,8.30
2008,09,23,09,15,8.40
2008,09,23,09,16,8.50
2008,09,23,09,17,8.50
2008,09,23,09,18,8.60
2008,09,23,09,19,8.70
2008,09,23,09,20,8.70
2008,09,23,09,21,8.80
2008,09,23,09,22,8.90
2008,09,23,09,23,8.90
2008,09,23,09,24,9.00
2008,09,23,09,25,9.10
2008,09,23,09,26,9.20
2008,09,23,09,27,9.20
2008,09,23,09,28,9.20
2008,09,23,09,29,9.30
2008,09,23,09,30,9.40
2008,09,23,09,31,9.40
2008,09,23,09,32,9.50
2008,09,23,09,33,9.50
2008,09,23,09,34,9.60
2008,09,23,09,35,9.70
2008,09,23,09,36,9.80
2008,09,23,09,37,10.00
2008,09,23,09,38,10.20
2008,09,23,09,39,10.30
2008,09,23,09,40,10.40
2008,09,23,09,41,10.60
2008,09,23,09,42,10.70
2008,09,23,09,43,10.90
2008,09,23,09,44,11.00
2008,09,23,09,45,11.20
2008,09,23,09,46,11.30
2008,09,23,09,47,11.40
2008,09,23,09,48,11.50
2008,09,23,09,49,11.60
2008,09,23,09,50,11.70
2008,09,23,09,51,11.80
2008,09,23,09,52,11.80
2008,09,23,09,53,11.90
2008,09,23,09,54,12.00
2008,09,23,09,55,12.00
2008,09,23,09,56,11.90
2008,09,23,09,57,11.90
2008,09,23,09,58,12.00
2008,09,23,09,59,12.10
2008,09,23,10,00,12.10
2008,09,23,10,01,12.10
2008,09,23,10,02,12.10
2008,09,23,10,03,12.10
2008,09,23,10,04,12.10
2008,09,23,10,05,12.10
2008,09,23,10,06,12.10
2008,09,23,10,07,12.10
2008,09,23,10,08,12.10
2008,09,23,10,09,12.10
2008,09,23,10,10,12.10
2008,09,23,10,11,12.20
2008,09,23,10,12,12.20
2008,09,23,10,13,12.30
2008,09,23,10,14,12.30
2008,09,23,10,15,12.30
2008,09,23,10,16,12.30
2008,09,23,10,17,12.30
2008,09,23,10,18,12.30
2008,09,23,10,19,12.30
2008,09,23,10,20,12.30
2008,09,23,10,21,12.30
2008,09,23,10,22,12.20
2008,09,23,10,23,12.10
2008,09,23,10,24,12.20
2008,09,23,10,25,12.20
2008,09,23,10,26,12.30
2008,09,23,10,27,12.30
2008,09,23,10,28,12.30
2008,09,23,10,29,12.20
2008,09,23,10,30,12.10
2008,09,23,10,31,12.10
2008,09,23,10,32,12.20
2008,09,23,10,33,12.30
2008,09,23,10,34,12.30
2008,09,23,10,35,12.30
2008,09,23,10,36,12.30
2008,09,23,10,37,12.40
2008,09,23,10,38,12.40
2008,09,23,10,39,12.40
2008,09,23,10,40,12.50
2008,09,23,10,41,12.60
2008,09,23,10,42,12.70
2008,09,23,10,43,12.80
2008,09,23,10,44,12.80
2008,09,23,10,45,12.80
2008,09,23,10,46,12.80
2008,09,23,10,47,12.80
2008,09,23,10,48,12.80
2008,09,23,10,49,12.80
2008,09,23,10,50,12.80
2008,09,23,10,51,12.60
2008,09,23,10,52,12.50
2008,09,23,10,53,12.40
2008,09,23,10,54,12.30
2008,09,23,10,55,12.30
2008,09,23,10,56,12.20
2008,09,23,10,57,12.20
2008,09,23,10,58,12.20
2008,09,23,10,59,12.30
2008,09,23,11,00,12.30
2008,09,23,11,01,12.40
2008,09,23,11,02,12.50
2008,09,23,11,03,12.60
2008,09,23,11,04,12.70
2008,09,23,11,05,12.70
2008,09,23,11,06,12.70
2008,09,23,11,07,12.60
2008,09,23,11,08,12.60
2008,09,23,11,09,12.60
2008,09,23,11,10,12.50
2008,09,23,11,11,12.50
2008,09,23,11,12,12.60
2008,09,23,11,13,12.70
2008,09,23,11,14,12.70
2008,09,23,11,15,12.60
2008,09,23,11,16,12.60
2008,09,23,11,17,12.60
2008,09,23,11,18,12.80
2008,09,23,11,19,12.80
2008,09,23,11,20,12.80
2008,09,23,11,21,12.80
2008,09,23,11,22,12.80
2008,09,23,11,23,12.80
2008,09,23,11,24,12.70
2008,09,23,11,25,12.80
2008,09,23,11,26,12.80
2008,09,23,11,27,12.80
2008,09,23,11,28,12.80
2008,09,23,11,29,12.80
2008,09,23,11,30,12.80
2008,09,23,11,31,12.80
2008,09,23,11,32,12.80
2008,09,23,11,33,12.80
2008,09,23,11,34,12.80
2008,09,23,11,35,12.80
2008,09,23,11,36,12.80
2008,09,23,11,37,12.70
2008,09,23,11,38,12.80
2008,09,23,11,39,12.80
2008,09,23,11,40,12.80
2008,09,23,11,41,12.80
2008,09,23,11,42,12.80
2008,09,23,11,43,12.70
2008,09,23,11,44,12.70
2008,09,23,11,45,12.80
2008,09,23,11,46,12.80
2008,09,23,11,47,12.80
2008,09,23,11,48,12.80
2008,09,23,11,49,12.90
2008,09,23,11,50,12.90
2008,09,23,11,51,12.90
2008,09,23,11,52,12.80
2008,09,23,11,53,12.80
2008,09,23,11,54,12.80
2008,09,23,11,55,12.90
2008,09,23,11,56,12.90
2008,09,23,11,57,12.80
2008,09,23,11,58,12.80
2008,09,23,11,59,12.90
2008,09,23,12,00,12.90
2008,09,23,12,01,13.00
2008,09,23,12,02,13.00
2008,09,23,12,03,13.00
2008,09,23,12,04,13.00
2008,09,23,12,05,13.10
2008,09,23,12,06,13.20
2008,09,23,12,07,13.20
2008,09,23,12,08,13.30
2008,09,23,12,09,13.30
2008,09,23,12,10,13.30
2008,09,23,12,11,13.30
2008,09,23,12,12,13.20
2008,09,23,12,13,13.10
2008,09,23,12,14,13.00
2008,09,23,12,15,12.90
2008,09,23,12,16,12.90
2008,09,23,12,17,12.80
2008,09,23,12,18,12.80
2008,09,23,12,19,12.80
2008,09,23,12,20,12.80
2008,09,23,12,21,12.80
2008,09,23,12,22,12.80
2008,09,23,12,23,12.80
2008,09,23,12,24,12.90
2008,09,23,12,25,13.00
2008,09,23,12,26,13.10
2008,09,23,12,27,13.10
2008,09,23,12,28,13.10
2008,09,23,12,29,13.10
2008,09,23,12,30,13.10
2008,09,23,12,31,13.20
2008,09,23,12,32,13.30
2008,09,23,12,33,13.30
2008,09,23,12,34,13.30
2008,09,23,12,35,13.30
2008,09,23,12,36,13.40
2008,09,23,12,37,13.50
2008,09,23,12,38,13.60
2008,09,23,12,39,13.60
2008,09,23,12,40,13.60
2008,09,23,12,41,13.60
2008,09,23,12,42,13.50
2008,09,23,12,43,13.50
2008,09,23,12,44,13.40
2008,09,23,12,45,13.40
2008,09,23,12,46,13.40
2008,09,23,12,47,13.40
2008,09,23,12,48,13.50
2008,09,23,12,49,13.50
2008,09,23,12,50,13.50
2008,09,23,12,51,13.40
2008,09,23,12,52,13.40
2008,09,23,12,53,13.40
2008,09,23,12,54,13.50
2008,09,23,12,55,13.50
2008,09,23,12,56,13.50
2008,09,23,12,57,13.40
2008,09,23,12,58,13.40
2008,09,23,12,59,13.50
2008,09,23,13,00,13.50
2008,09,23,13,01,13.50
2008,09,23,13,02,13.60
2008,09,23,13,03,13.70
2008,09,23,13,04,13.80
2008,09,23,13,05,13.80
2008,09,23,13,06,13.80
2008,09,23,13,07,13.80
2008,09,23,13,08,13.80
2008,09,23,13,09,13.80
2008,09,23,13,10,13.80
2008,09,23,13,11,13.80
2008,09,23,13,12,13.80
2008,09,23,13,13,13.80
2008,09,23,13,14,13.80
2008,09,23,13,15,13.90
2008,09,23,13,16,13.90
2008,09,23,13,17,13.90
2008,09,23,13,18,13.90
2008,09,23,13,19,14.00
2008,09,23,13,20,14.00
2008,09,23,13,21,14.00
2008,09,23,13,22,14.00
2008,09,23,13,23,14.00
2008,09,23,13,24,14.00
2008,09,23,13,25,14.00
2008,09,23,13,26,14.00
2008,09,23,13,27,14.10
2008,09,23,13,28,14.20
2008,09,23,13,29,14.10
2008,09,23,13,30,14.10
2008,09,23,13,31,14.20
2008,09,23,13,32,14.20
2008,09,23,13,33,14.20
2008,09,23,13,34,14.20
2008,09,23,13,35,14.20
2008,09,23,13,36,14.20
2008,09,23,13,37,14.30
2008,09,23,13,38,14.40
2008,09,23,13,39,14.40
2008,09,23,13,40,14.50
2008,09,23,13,41,14.50
2008,09,23,13,42,14.60
2008,09,23,13,43,14.60
2008,09,23,13,44,14.60
2008,09,23,13,45,14.50
2008,09,23,13,46,14.50
2008,09,23,13,47,14.40
2008,09,23,13,48,14.30
2008,09,23,13,49,14.30
2008,09,23,13,50,14.30
2008,09,23,13,51,14.40
2008,09,23,13,52,14.40
2008,09,23,13,53,14.40
2008,09,23,13,54,14.50
2008,09,23,13,55,14.50
2008,09,23,13,56,14.50
2008,09,23,13,57,14.50
2008,09,23,13,58,14.50
2008,09,23,13,59,14.50
2008,09,23,14,00,14.50
2008,09,23,14,01,14.50
2008,09,23,14,02,14.50
2008,09,23,14,03,14.40
2008,09,23,14,04,14.40
2008,09,23,14,05,14.40
2008,09,23,14,06,14.40
2008,09,23,14,07,14.40
2008,09,23,14,08,14.40
2008,09,23,14,09,14.40
2008,09,23,14,10,14.50
2008,09,23,14,11,14.50
2008,09,23,14,12,14.50
2008,09,23,14,13,14.60
2008,09,23,14,14,14.60
2008,09,23,14,15,14.70
2008,09,23,14,16,14.80
2008,09,23,14,17,14.80
2008,09,23,14,18,14.80
2008,09,23,14,19,14.80
2008,09,23,14,20,14.80
2008,09,23,14,21,14.80
2008,09,23,14,22,14.80
2008,09,23,14,23,14.80
2008,09,23,14,24,14.80
2008,09,23,14,25,14.80
2008,09,23,14,26,14.80
2008,09,23,14,27,14.80
2008,09,23,14,28,14.80
2008,09,23,14,29,14.80
2008,09,23,14,30,14.80
2008,09,23,14,31,14.80
2008,09,23,14,32,14.80
2008,09,23,14,33,14.80
2008,09,23,14,34,14.80
2008,09,23,14,35,14.80
2008,09,23,14,36,14.80
2008,09,23,14,37,14.80
2008,09,23,14,38,14.70
2008,09,23,14,39,14.70
2008,09,23,14,40,14.70
2008,09,23,14,41,14.70
2008,09,23,14,42,14.60
2008,09,23,14,43,14.70
2008,09,23,14,44,14.70
2008,09,23,14,45,14.60
2008,09,23,14,46,14.60
2008,09,23,14,47,14.50
2008,09,23,14,48,14.50
2008,09,23,14,49,14.50
2008,09,23,14,50,14.50
2008,09,23,14,51,14.60
2008,09,23,14,52,14.60
2008,09,23,14,53,14.60
2008,09,23,14,54,14.60
2008,09,23,14,55,14.60
2008,09,23,14,56,14.60
2008,09,23,14,57,14.50
2008,09,23,14,58,14.50
2008,09,23,14,59,14.40
2008,09,23,15,00,14.50
2008,09,23,15,01,14.50
2008,09,23,15,02,14.40
2008,09,23,15,03,14.30
2008,09,23,15,04,14.20
2008,09,23,15,05,14.20
2008,09,23,15,06,14.20
2008,09,23,15,07,14.20
2008,09,23,15,08,14.20
2008,09,23,15,09,14.20
2008,09,23,15,10,14.20
2008,09,23,15,11,14.20
2008,09,23,15,12,14.20
2008,09,23,15,13,14.10
2008,09,23,15,14,14.10
2008,09,23,15,15,14.20
2008,09,23,15,16,14.20
2008,09,23,15,17,14.10
2008,09,23,15,18,14.20
2008,09,23,15,19,14.10
2008,09,23,15,20,14.10
2008,09,23,15,21,14.10
2008,09,23,15,22,14.10
2008,09,23,15,23,14.00
2008,09,23,15,24,14.00
2008,09,23,15,25,14.00
2008,09,23,15,26,14.00
2008,09,23,15,27,14.00
2008,09,23,15,28,14.00
2008,09,23,15,29,14.00
2008,09,23,15,30,14.00
2008,09,23,15,31,14.10
2008,09,23,15,32,14.10
2008,09,23,15,33,14.10
2008,09,23,15,34,14.10
2008,09,23,15,35,14.10
2008,09,23,15,36,14.10
2008,09,23,15,37,14.10
2008,09,23,15,38,14.20
2008,09,23,15,39,14.20
2008,09,23,15,40,14.20
2008,09,23,15,41,14.20
2008,09,23,15,42,14.20
2008,09,23,15,43,14.20
2008,09,23,15,44,14.20
2008,09,23,15,45,14.20
2008,09,23,15,46,14.20
2008,09,23,15,47,14.20
2008,09,23,15,48,14.20
2008,09,23,15,49,14.20
2008,09,23,15,50,14.20
2008,09,23,15,51,14.10
2008,09,23,15,52,14.00
2008,09,23,15,53,14.00
2008,09,23,15,54,13.90
2008,09,23,15,55,13.90
2008,09,23,15,56,13.90
2008,09,23,15,57,13.90
2008,09,23,15,58,13.90
2008,09,23,15,59,13.90
2008,09,23,16,00,13.80
2008,09,23,16,01,13.80
2008,09,23,16,02,13.80
2008,09,23,16,03,13.80
2008,09,23,16,04,13.80
2008,09,23,16,05,13.80
2008,09,23,16,06,13.80
2008,09,23,16,07,13.70
2008,09,23,16,08,13.70
2008,09,23,16,09,13.70
2008,09,23,16,10,13.70
2008,09,23,16,11,13.80
2008,09,23,16,12,13.80
2008,09,23,16,13,13.80
2008,09,23,16,14,13.80
2008,09,23,16,15,13.80
2008,09,23,16,16,13.90
2008,09,23,16,17,13.90
2008,09,23,16,18,14.00
2008,09,23,16,19,14.00
2008,09,23,16,20,14.10
2008,09,23,16,21,14.10
2008,09,23,16,22,14.10
2008,09,23,16,23,14.10
2008,09,23,16,24,14.10
2008,09,23,16,25,14.10
2008,09,23,16,26,14.10
2008,09,23,16,27,14.10
2008,09,23,16,28,14.00
2008,09,23,16,29,14.00
2008,09,23,16,30,14.00
2008,09,23,16,31,14.00
2008,09,23,16,32,14.00
2008,09,23,16,33,14.00
2008,09,23,16,34,14.00
2008,09,23,16,35,14.00
2008,09,23,16,36,13.90
2008,09,23,16,37,13.90
2008,09,23,16,38,13.90
2008,09,23,16,39,13.90
2008,09,23,16,40,13.90
2008,09,23,16,41,13.90
2008,09,23,16,42,13.90
2008,09,23,16,43,13.90
2008,09,23,16,44,13.90
2008,09,23,16,45,13.90
2008,09,23,16,46,13.90
2008,09,23,16,47,13.90
2008,09,23,16,48,13.90
2008,09,23,16,49,13.90
2008,09,23,16,50,13.90
2008,09,23,16,51,14.00
2008,09,23,16,52,14.00
2008,09,23,16,53,14.00
2008,09,23,16,54,14.00
2008,09,23,16,55,14.00
2008,09,23,16,56,14.00
2008,09,23,16,57,14.00
2008,09,23,16,58,14.00
2008,09,23,16,59,14.00
2008,09,23,17,00,14.00
2008,09,23,17,01,14.00
2008,09,23,17,02,14.00
2008,09,23,17,03,14.00
2008,09,23,17,04,14.10
2008,09,23,17,05,14.10
2008,09,23,17,06,14.10
2008,09,23,17,07,14.10
2008,09,23,17,08,14.20
2008,09,23,17,09,14.20
2008,09,23,17,10,14.20
2008,09,23,17,11,14.20
2008,09,23,17,12,14.20
2008,09,23,17,13,14.20
2008,09,23,17,14,14.20
2008,09,23,17,15,14.20
2008,09,23,17,16,14.20
2008,09,23,17,17,14.20
2008,09,23,17,18,14.20
2008,09,23,17,19,14.20
2008,09,23,17,20,14.20
2008,09,23,17,21,14.20
2008,09,23,17,22,14.20
2008,09,23,17,23,14.20
2008,09,23,17,24,14.20
2008,09,23,17,25,14.20
2008,09,23,17,26,14.20
2008,09,23,17,27,14.20
2008,09,23,17,28,14.20
2008,09,23,17,29,14.20
2008,09,23,17,30,14.20
2008,09,23,17,31,14.30
2008,09,23,17,32,14.30
2008,09,23,17,33,14.40
2008,09,23,17,34,14.40
2008,09,23,17,35,14.50
2008,09,23,17,36,14.50
2008,09,23,17,37,14.50
2008,09,23,17,38,14.60
2008,09,23,17,39,14.60
2008,09,23,17,40,14.60
2008,09,23,17,41,14.60
2008,09,23,17,42,14.60
2008,09,23,17,43,14.60
2008,09,23,17,44,14.60